Regional Weather Roundup
Issued by NWS Upton, NY

Current Version | Previous Version | Text Only | Print | Product List | Glossary On
Versions: 1 2 3 4 5 6 7 8 9 10 11 12 13 14 15 16 17 18 19 20 21 22 23 24 25 26 27 28 29 30 31 32 33 34 35 36 37 38 39 40 41 42 43 44 45 46 47 48 49 50
000
ASUS41 KOKX 172208
RWROKX

REGIONAL WEATHER ROUNDUP
NATIONAL WEATHER SERVICE NEW YORK NY
600 PM EDT FRI APR 17 2015

NOTE: "FAIR" INDICATES FEW OR NO CLOUDS BELOW 12,000 FEET WITH NO
SIGNIFICANT WEATHER AND/OR OBSTRUCTIONS TO VISIBILITY.

NYZ071-072-176-178-NJZ106-104-172300-
NEW YORK CITY METRO AREA


CITY           SKY/WX    TMP DP  RH WIND       PRES   REMARKS
CENTRAL PARK   MOSUNNY   70  52  52 MISG      29.92F
LAGUARDIA APRT PTSUNNY   70  53  54 W10       29.89F
KENNEDY INTL   MOSUNNY   65  52  62 S9        29.91F
NEWARK/LIBERTY PTSUNNY   72  53  51 SW17G23   29.89F
BRNX BOT. GARD   N/A     70  54  56 S2        29.89S
TETERBORO      PTSUNNY   71  53  52 W10       29.88F
$$

NYZ177-179-078>081-172300-
LONG ISLAND NEW YORK

CITY           SKY/WX    TMP DP  RH WIND       PRES   REMARKS
FARMINGDALE    MOSUNNY   65  55  70 SW14      29.91F
ISLIP          PTSUNNY   62  54  74 SW10      29.90F
SHIRLEY        SUNNY     60  53  77 SW10      29.92F
WESTHAMPTON    SUNNY     58  53  84 SW6       29.93F
MONTAUK POINT    N/A     57  51  80 S5        29.92F
$$

NYZ052-065-067-172300-
HUDSON VALLEY

CITY           SKY/WX    TMP DP  RH WIND       PRES   REMARKS
WHITE PLAINS   CLOUDY    68  53  58 SW3       29.89F
NEWBURGH       PTSUNNY   66  54  63 W16       29.92R
MONTGOMERY     CLOUDY    68  30  24 NW8       29.91R
POUGHKEEPSIE   CLOUDY    68  51  54 NW10G17   29.90R
ALBANY         MOSUNNY   63  47  55 NW17G26   29.92R
$$

NJZ001-105-106-008-010-013-015-019>022-104-172300-
NEW JERSEY

CITY           SKY/WX    TMP DP  RH WIND       PRES   REMARKS
NEWARK/LIBERTY PTSUNNY   72  53  51 SW17G23   29.89F
TETERBORO      PTSUNNY   71  53  52 W10       29.88F
CALDWELL       MOSUNNY   71  52  50 W9        29.90F
MORRISTOWN     PTSUNNY   70  54  56 W9G18     29.91F
SOMERVILLE     PTSUNNY   73  54  51 VRB6G17   29.90F
SUSSEX         CLOUDY    70  52  52 VRB5      29.92S
ANDOVER          N/A     69  52  54 VRB6      29.91S
TRENTON        PTSUNNY   71  54  54 NW8       29.92F
MILLVILLE      MOSUNNY   74  58  57 SW8       29.93F
ATLANTIC CITY  MOSUNNY   73  57  57 W9        29.93F
WRIGHTSTOWN    PTSUNNY   71  57  61 NW6       29.89F
TOMS RIVER     MOSUNNY   72  57  60 W5        29.93S
BELMAR         PTSUNNY   70  54  56 W9G18     29.92F
$$

PAZ047>061-062-071-172300-
EASTERN PENNSYLVANIA

CITY           SKY/WX    TMP DP  RH WIND       PRES   REMARKS
PHILADELPHIA   PTSUNNY   73  57  57 SW8       29.93F
ALLENTOWN      PTSUNNY   70  55  59 W6        29.93S
SCRANTON       MOSUNNY   68  51  54 SW9       29.94S
$$

CTZ002-004>006-009-010-012-RIZ004-006-007-MAZ004-011-015-172300-
SOUTHERN NEW ENGLAND
 IN CT

CITY           SKY/WX    TMP DP  RH WIND       PRES   REMARKS
BRADLEY INTL   PTSUNNY   66  51  58 NW9       29.89R
HARTFORD       CLOUDY    68  53  58 W10       29.88F
DANBURY        CLOUDY    66  52  60 W3        29.91S
WTRBRY/OXFORD  CLOUDY    64  52  63 SW5       29.91S
BRIDGEPORT     PTSUNNY   60  51  72 SW5       29.90S
MERIDEN        PTSUNNY   67  52  58 W6        29.89F
NEW HAVEN      PTSUNNY   61  52  72 SW8       29.90S
CHESTER        FAIR      64  55  72 SW5       29.90F
GROTON         PTSUNNY   53  50  89 S8        29.89F
WILLIMANTIC    CLOUDY    65  53  65 SW3       29.89S

 IN RI

CITY           SKY/WX    TMP DP  RH WIND       PRES   REMARKS
PROVIDENCE     PTSUNNY   63  54  72 SW8       29.88F
BLOCK ISLAND   CLOUDY    52  46  82 SW16      29.92F
WESTERLY       CLOUDY    55  53  93 SW8       29.91S

 IN MA

CITY           SKY/WX    TMP DP  RH WIND       PRES   REMARKS
BOSTON         PTSUNNY   64  51  62 W9        29.86F
WORCESTER      MOSUNNY   59  49  69 W15G22    29.88F
WESTFIELD      MOSUNNY   65  50  58 W9        29.89S
PROVINCETOWN   PTSUNNY   54  48  82 SW15      29.87S
NANTUCKET      FOG       48  46  93 W16       29.91S VSB 1
$$

ANZ330-335-338-340-345-350-353-355-172300-
COASTAL MARINE OBSERVATIONS


STATION/POSITION TIME  SKY/WX   TEMP    WIND        PRES    VSBY  WAVE
                                AIR SEA DIR/SP/G                  HT/PER
                 (UTC)          (F)     (DEG/KT/KT) (MB)    (MI)  (FT/S)
NY HARB ENTRANCE 2150            51 48  190/  6/  8 1012.8          3/ 8
4S FIRE IS       2103               44                N/A           3/10
20S FIRE ISLAND  2050               44              1014.5          3/ 8
23SW MTP         2150                                 N/A           3/ 8
HUDSON CANYON    NOT AVBL
EXECUTION ROCKS  NOT AVBL
WESTERN LI SOUND NOT AVBL
CENTRAL LI SOUND NOT AVBL
EASTERN LI SOUND 2100            49     240/  6/  8   N/A
ROBBINS REEF     2100            68     260/ 14/ 16 1011.8
$$


>>>>>>>>>>>>>>>>>>>>>>>>>>>> KEY <<<<<<<<<<<<<<<<<<<<<<<<<<<
>                                                          <
>     SKY/WX - SKY CONDITION/PRESENT WEATHER               <
>     TMP    - TEMPERATURE IN FAHRENHEIT                   <
>     DP     - DEWPOINT IN FAHRENHEIT                      <
>     RH     - RELATIVE HUMIDITY IN PERCENT                <
>     WIND   - DIRECTION AND SPEED IN MPH                  <
>     PRES   - MEAN SEA LEVEL PRESSURE IN INCHES OF HG     <
>     WCI    - WIND CHILL INDEX                            <
>     VSB    - VISIBILITY IN MILES                         <
>     HX     - HEAT INDEX                                  <
>     TC     - TEMPERATURE IN CELSIUS                      <
>     VRB    - VARIABLE WIND DIRECTION                     <
>                                                          <
>>>>>>>>>>>>>>>>>>>>>>>>>>>> KEY <<<<<<<<<<<<<<<<<<<<<<<<<<<





USA.gov is the U.S. government's official web portal to all federal, state and local government web resources and services.